User: anonymous   Login
Location: Unspecified
(0.0000°N, 0.0000°E)
Time: 11:37:23
(UTC+02:00)
Language:

ARIANE 5 R/B - Orbit

View from above orbital plane
View from above orbital plane
View from above satellite
View from above satellite

Ground track
Ground track

The orbit data is extracted from the following two-line orbital elements,

1 28379U 04027B   18115.88639715 -.00000003 +00000-0 +22377-2 0  9992
2 28379 006.4469 222.3442 7286442 281.5371 100.2049 02.07930018104639
Epoch (UTC): 25 April 2018 21:16:24
Eccentricity: 0.7286442
inclination: 6.4469°
perigee height: 658 km
apogee height: 38444 km
right ascension of ascending node: 222.3442°
argument of perigee: 281.5371°
revolutions per day: 2.07930018
mean anomaly at epoch: 100.2049°
orbit number at epoch: 10463

The dashed part of the orbit path shows where the satellite is in the earth's shadow,  

DLR